When you browse on this site, cookies collect data to enhance your experience and personalize the content and advertising you see.
Visit our Privacy Policy to learn more. By continuing to use the site, you agree to this use of cookies and data.
  • In Portugal
  • List of Countries
  • For 7 days
  • Water Temperature
  • Weather Map
  • Weather Widgets
  • user-avatar
    Login

    Hourly Weather Polotsk

    Today, 6 June, Saturday

    Time Temperature Precipitation Wind Pressure Humidity
    00:00 +14°C° 0 mm 5 mps 738 mmHg 82%
    01:00 +14°C° 0 mm 5 mps 738 mmHg 86%
    02:00 +14°C° 0 mm 5 mps 738 mmHg 89%
    03:00 +14°C° 0.1 mm 5 mps 738 mmHg 91%
    04:00 +14°C° 0.1 mm 4 mps 738 mmHg 93%
    05:00 +14°C° 0.1 mm 4 mps 738 mmHg 95%
    06:00 +15°C° 0.3 mm 4 mps 738 mmHg 95%
    07:00 +15°C° 0.3 mm 4 mps 738 mmHg 95%
    08:00 +15°C° 0.3 mm 4 mps 739 mmHg 95%
    09:00 +17°C° 0.2 mm 4 mps 739 mmHg 91%
    10:00 +18°C° 0.2 mm 4 mps 740 mmHg 86%
    11:00 +19°C° 0.2 mm 4 mps 740 mmHg 82%
    12:00 +21°C° 0.2 mm 5 mps 740 mmHg 73%
    13:00 +22°C° 0.2 mm 5 mps 741 mmHg 64%
    14:00 +23°C° 0.2 mm 6 mps 741 mmHg 56%
    15:00 +22°C° 0.1 mm 6 mps 741 mmHg 59%
    16:00 +22°C° 0.1 mm 5 mps 742 mmHg 63%
    17:00 +21°C° 0.1 mm 5 mps 742 mmHg 66%
    18:00 +19°C° 0 mm 4 mps 743 mmHg 71%
    19:00 +18°C° 0 mm 3 mps 743 mmHg 75%
    20:00 +17°C° 0 mm 2 mps 744 mmHg 79%
    21:00 +15°C° 0 mm 2 mps 744 mmHg 82%
    22:00 +14°C° 0 mm 2 mps 745 mmHg 85%
    23:00 +13°C° 0 mm 1 mps 745 mmHg 88%

    Tomorrow, 7 June, Sunday

    Time Temperature Precipitation Wind Pressure Humidity
    00:00 +13°C° 0 mm 1 mps 746 mmHg 89%
    01:00 +12°C° 0 mm 2 mps 746 mmHg 90%
    02:00 +12°C° 0 mm 2 mps 747 mmHg 91%
    03:00 +13°C° 0 mm 2 mps 747 mmHg 90%
    04:00 +13°C° 0 mm 2 mps 747 mmHg 89%
    05:00 +14°C° 0 mm 2 mps 747 mmHg 88%
    06:00 +16°C° 0 mm 3 mps 747 mmHg 83%
    07:00 +17°C° 0 mm 3 mps 747 mmHg 77%
    08:00 +19°C° 0 mm 3 mps 748 mmHg 72%
    09:00 +21°C° 0 mm 3 mps 748 mmHg 67%
    10:00 +22°C° 0 mm 4 mps 748 mmHg 62%
    11:00 +23°C° 0 mm 4 mps 748 mmHg 58%
    12:00 +25°C° 0 mm 4 mps 748 mmHg 58%
    13:00 +25°C° 0 mm 4 mps 748 mmHg 58%
    14:00 +25°C° 0 mm 5 mps 748 mmHg 58%
    15:00 +25°C° 0 mm 5 mps 747 mmHg 60%
    16:00 +25°C° 0 mm 5 mps 747 mmHg 63%
    17:00 +25°C° 0 mm 5 mps 747 mmHg 65%
    18:00 +23°C° 0 mm 4 mps 747 mmHg 71%
    19:00 +22°C° 0 mm 4 mps 746 mmHg 77%
    20:00 +21°C° 0 mm 3 mps 746 mmHg 83%
    21:00 +20°C° 0 mm 3 mps 747 mmHg 86%
    22:00 +19°C° 0 mm 3 mps 747 mmHg 89%
    23:00 +19°C° 0 mm 3 mps 747 mmHg 92%

    Day after tomorrow, 8 June, Monday

    Time Temperature Precipitation Wind Pressure Humidity
    00:00 +18°C° 0 mm 3 mps 747 mmHg 93%
    01:00 +18°C° 0 mm 3 mps 747 mmHg 95%
    02:00 +17°C° 0 mm 3 mps 747 mmHg 96%
    03:00 +17°C° 0 mm 3 mps 747 mmHg 95%
    04:00 +18°C° 0 mm 3 mps 747 mmHg 94%
    05:00 +18°C° 0 mm 3 mps 746 mmHg 94%
    06:00 +19°C° 0 mm 3 mps 747 mmHg 88%
    07:00 +21°C° 0 mm 4 mps 747 mmHg 82%
    08:00 +23°C° 0 mm 4 mps 747 mmHg 76%
    09:00 +25°C° 0 mm 4 mps 747 mmHg 71%
    10:00 +26°C° 0 mm 4 mps 747 mmHg 65%
    11:00 +28°C° 0 mm 4 mps 747 mmHg 60%
    12:00 +28°C° 0 mm 4 mps 747 mmHg 58%
    13:00 +29°C° 0 mm 4 mps 747 mmHg 55%
    14:00 +29°C° 0 mm 4 mps 747 mmHg 53%
    15:00 +29°C° 0 mm 4 mps 747 mmHg 55%
    16:00 +29°C° 0 mm 4 mps 747 mmHg 58%
    17:00 +29°C° 0 mm 4 mps 746 mmHg 60%
    18:00 +27°C° 0 mm 3 mps 746 mmHg 68%
    19:00 +25°C° 0 mm 3 mps 746 mmHg 76%
    20:00 +22°C° 0 mm 3 mps 746 mmHg 83%
    21:00 +21°C° 0 mm 3 mps 747 mmHg 87%
    22:00 +20°C° 0 mm 2 mps 747 mmHg 90%
    23:00 +19°C° 0 mm 2 mps 747 mmHg 93%

    9 June, Tuesday

    Time Temperature Precipitation Wind Pressure Humidity
    00:00 +19°C° 0 mm 2 mps 747 mmHg 94%
    01:00 +18°C° 0 mm 2 mps 747 mmHg 94%
    02:00 +18°C° 0 mm 2 mps 747 mmHg 95%
    03:00 +18°C° 0 mm 2 mps 747 mmHg 94%
    04:00 +18°C° 0 mm 2 mps 747 mmHg 94%
    05:00 +19°C° 0 mm 2 mps 747 mmHg 93%
    06:00 +20°C° 0 mm 2 mps 748 mmHg 87%
    07:00 +23°C° 0 mm 2 mps 748 mmHg 81%
    08:00 +25°C° 0 mm 2 mps 748 mmHg 74%
    09:00 +26°C° 0.1 mm 3 mps 748 mmHg 69%
    10:00 +27°C° 0.1 mm 3 mps 748 mmHg 64%
    11:00 +28°C° 0.1 mm 3 mps 748 mmHg 59%
    12:00 +29°C° 0.2 mm 3 mps 748 mmHg 58%
    13:00 +29°C° 0.2 mm 3 mps 748 mmHg 56%
    14:00 +29°C° 0.2 mm 3 mps 748 mmHg 55%
    15:00 +29°C° 0.5 mm 2 mps 748 mmHg 60%
    16:00 +28°C° 0.5 mm 2 mps 747 mmHg 64%
    17:00 +28°C° 0.5 mm 2 mps 747 mmHg 69%
    18:00 +26°C° 0.2 mm 2 mps 747 mmHg 75%
    19:00 +25°C° 0.2 mm 2 mps 747 mmHg 81%
    20:00 +23°C° 0.2 mm 1 mps 747 mmHg 87%
    21:00 +22°C° 0 mm 1 mps 747 mmHg 89%
    22:00 +22°C° 0 mm 1 mps 747 mmHg 91%
    23:00 +21°C° 0 mm 1 mps 747 mmHg 93%

    10 June, Wednesday

    Time Temperature Precipitation Wind Pressure Humidity
    00:00 +21°C° 0 mm 1 mps 747 mmHg 94%
    01:00 +20°C° 0 mm 1 mps 747 mmHg 95%
    02:00 +20°C° 0 mm 1 mps 747 mmHg 96%
    03:00 +19°C° 0 mm 2 mps 747 mmHg 96%
    04:00 +19°C° 0 mm 2 mps 747 mmHg 96%
    05:00 +19°C° 0 mm 2 mps 747 mmHg 96%
    06:00 +20°C° 0 mm 2 mps 747 mmHg 91%
    07:00 +23°C° 0 mm 2 mps 747 mmHg 87%
    08:00 +24°C° 0 mm 2 mps 747 mmHg 83%
    09:00 +25°C° 0.4 mm 2 mps 747 mmHg 78%
    10:00 +26°C° 0.4 mm 3 mps 747 mmHg 73%
    11:00 +27°C° 0.4 mm 3 mps 747 mmHg 68%
    12:00 +28°C° 0.7 mm 3 mps 747 mmHg 69%
    13:00 +28°C° 0.7 mm 3 mps 747 mmHg 69%
    14:00 +28°C° 0.7 mm 4 mps 746 mmHg 70%
    15:00 +27°C° 1 mm 3 mps 746 mmHg 73%
    16:00 +26°C° 1 mm 3 mps 746 mmHg 77%
    17:00 +26°C° 1 mm 2 mps 746 mmHg 80%
    18:00 +25°C° 0.2 mm 2 mps 745 mmHg 83%
    19:00 +24°C° 0.2 mm 2 mps 745 mmHg 86%
    20:00 +23°C° 0.2 mm 2 mps 745 mmHg 89%
    21:00 +23°C° 0.1 mm 2 mps 745 mmHg 91%
    22:00 +21°C° 0.1 mm 2 mps 745 mmHg 92%
    23:00 +20°C° 0.1 mm 2 mps 746 mmHg 93%

    11 June, Thursday

    Time Temperature Precipitation Wind Pressure Humidity
    00:00 +20°C° 0 mm 2 mps 745 mmHg 94%
    01:00 +19°C° 0 mm 2 mps 745 mmHg 95%
    02:00 +19°C° 0 mm 2 mps 745 mmHg 96%
    03:00 +19°C° 0 mm 2 mps 745 mmHg 96%
    04:00 +19°C° 0 mm 2 mps 745 mmHg 96%
    05:00 +19°C° 0 mm 2 mps 745 mmHg 95%
    06:00 +21°C° 0 mm 2 mps 745 mmHg 91%
    07:00 +23°C° 0 mm 2 mps 745 mmHg 86%
    08:00 +25°C° 0 mm 2 mps 745 mmHg 81%
    09:00 +26°C° 0.5 mm 2 mps 745 mmHg 75%
    10:00 +28°C° 0.5 mm 2 mps 744 mmHg 68%
    11:00 +29°C° 0.5 mm 3 mps 744 mmHg 62%
    12:00 +29°C° 0.3 mm 3 mps 744 mmHg 60%
    13:00 +30°C° 0.3 mm 3 mps 744 mmHg 58%
    14:00 +30°C° 0.3 mm 3 mps 743 mmHg 56%
    15:00 +30°C° 0.7 mm 3 mps 743 mmHg 61%
    16:00 +29°C° 0.7 mm 3 mps 743 mmHg 65%
    17:00 +29°C° 0.7 mm 3 mps 743 mmHg 69%
    18:00 +27°C° 1.2 mm 3 mps 742 mmHg 75%
    19:00 +25°C° 1.2 mm 3 mps 742 mmHg 81%
    20:00 +24°C° 1.2 mm 3 mps 742 mmHg 86%
    21:00 +23°C° 0.3 mm 2 mps 742 mmHg 89%
    22:00 +21°C° 0.3 mm 2 mps 742 mmHg 91%
    23:00 +20°C° 0.3 mm 2 mps 742 mmHg 94%
    Show more